User: anonymous   Login
Location: Владивосток
(43.1151°N, 131.8856°E)
Time: 06:30:23
(UTC+10:00)
Language:

deb Delta 89 - Orbit

View from above orbital plane
View from above orbital plane
View from above satellite
View from above satellite

Ground track
Ground track

The orbit data is extracted from the following two-line orbital elements,

1  8314U 72058EG  24193.99458637  .00003361  00000-0  37555-3 0  9999
2  8314  98.4846  11.0531 0082578 352.3992   7.5963 14.85280354763502
Epoch (UTC): 11 July 2024 23:52:12
Eccentricity: 0.0082578
inclination: 98.4846°
perigee height: 555 km
apogee height: 670 km
right ascension of ascending node: 11.0531°
argument of perigee: 352.3992°
revolutions per day: 14.85280354
mean anomaly at epoch: 7.5963°
orbit number at epoch: 76350

The dashed part of the orbit path shows where the satellite is in the earth's shadow,  

DLR